Location: São Paulo
(23.5507°S, 46.6334°W)
Time: 13:31:51
(UTC-03:00)

Tiros 1 - Pass Details

Date: 10 February 2026
Orbit: 618 x 649 km, 48.4° (Epoch: 11 March)

Event Time Altitude Azimuth Distance (km) Brightness Sun altitude
Rises 22:54:47 0° 284° (WNW) 2,937 - -46.9°
Reaches altitude 10° 22:57:32 10° 269° (W) 2,039 - -47.2°
Maximum altitude 23:01:13 22° 217° (SW) 1,405 - -47.7°
Drops below altitude 10° 23:04:56 10° 165° (SSE) 2,062 - -48.1°
Sets 23:07:45 0° 150° (SSE) 2,980 - -48.4°
